Terug naar catalogus

STARLINK-36147

ActiefCommunicatieVLEO
NORAD 66987·PAYLOAD·🇺🇸 United States

Gelanceerd Dec 8, 2025 vanaf Cape Canaveral Space Force Station

Loading…

Volgende Passages (komende 24 uur)

TLE

VersSource: CelesTrak SupGP

Epoch: Sep 15, 2026, 03:16 UTC

1 66987C 25288AE  26258.13659722 -.00011635  00000+0 -42141-3 0  2589
2 66987  43.0034  33.4910 0001498 265.3350  18.6707 15.27585879    15

Volg STARLINK-36147 in realtime met AllMySat

Download on the App Store